Simultaneous Nadir Overpasses (SNOs) Predictions

Prediction of SNOs near US between AQUA and NPP Satellite Orbit:

Table of predicted SNOs near US for the next 10.0 days since TLE Epoch: 2/28/2015
Index Date (AQUA) Time (AQUA) AQUA Lat,Lon Date (NPP) Time (NPP) NPP Lat,Lon Distance(km) Time Diff (sec)
1 02/28/2015 06:56:51 20.03, -77.14 02/28/2015 06:50:40 19.92, -76.70 47.24 371
2 02/28/2015 08:31:45 34.42, -98.21 02/28/2015 08:28:02 34.42, -98.22 1.03 223
3 02/28/2015 10:07:30 45.66,-119.34 02/28/2015 10:06:17 45.74,-119.79 35.96 73
4 03/03/2015 07:19:29 49.93, -75.95 03/03/2015 07:26:18 50.38, -78.20 168.12 409
5 03/05/2015 18:17:41 49.95, -80.19 03/05/2015 18:16:33 49.67, -81.67 110.48 68
6 03/05/2015 19:55:11 45.01,-102.99 03/05/2015 19:56:35 44.60,-104.99 164.09 84
7 03/05/2015 21:27:55
